sat.trackr.live / text

‹ back to catalog

STARLINK-33733

NORAD 63435 · 2025-069C

PAYLOAD ACTIVE UNKNOWN

§ Identity

Operator
Country
US
Launch date
2025-04-04
Launch site
AFWTR
Launch vehicle
Mass (kg)
RCS (m²)

Purposes: comms

External: N2YO · Heavens-Above · Gunter

§ Orbital elements

Epoch: 2026-09-20T10:29:15.135936Z

Period
93.85 min
Inclination
53.1599°
Eccentricity
0.0000970
Mean motion
15.34398015 rev/d
Perigee alt
462.0 km
Apogee alt
463.4 km
Semi-major
6,840.8 km
B*
4.0398e-4
RAAN
309.9204°
Arg perigee
88.3717°
Mean anomaly
271.7397°
Rev number
8,333

§ Raw data

STARLINK-337331 63435U 25069C   26263.43698074  .00013296  00000+0  40398-3 0  99902 63435  53.1599 309.9204 0000970  88.3717 271.7397 15.34398015 83334

JSON: /api/v1/satellites/63435 · /tle

For live sub-satellite position, see the globe view (requires WebGL).

§ Visibility from observer

Set your observer location to see the next 7 days of passes ≥ 10°. The values pass through the URL so the page stays shareable.

No JS? Fill the form by hand. The geolocation button needs JavaScript.